Regional Weather Roundup
Issued by NWS Charleston, SC

Current Version | Previous Version | Graphics & Text | Print | Product List | Glossary On
Versions: 1 2 3 4 5 6 7 8 9 10 11 12 13 14 15 16 17 18 19 20 21 22 23 24 25 26 27 28 29 30 31 32 33 34 35 36 37 38 39 40 41 42 43 44 45 46 47 48 49 50
000 ASUS42 KCHS 291313 RWRCHS REGIONAL WEATHER ROUNDUP NATIONAL WEATHER SERVICE CHARLESTON SC 900 AM EDT THU SEP 29 2016 NOTE: "FAIR" INDICATES FEW OR NO CLOUDS BELOW 12,000 FEET WITH NO SIGNIFICANT WEATHER AND/OR OBSTRUCTIONS TO VISIBILITY. NOT ALL STATIONS ARE QUALITY CONTROLLED. USE DATA WITH CAUTION... ESPECIALLY DEWPOINT OBSERVATIONS. SCZ027-030-031-034>040-042>050-291400- ...SOUTHEAST SOUTH CAROLINA... CITY SKY/WX TMP DP RH WIND PRES REMARKS N CHARLESTON MOSUNNY 79 73 82 SW6 29.96R WATERFRONT PRK N/A 79 76 91 VRB3 29.94R MOUNT PLEASANT FAIR 81 75 83 CALM 29.97R JOHNS ISLAND FAIR 81 77 89 SW5 29.97R PINOPOLIS N/A 77 73 88 S6 29.88R MONCKS CORNER FAIR 75 72 88 S7 29.96R SUMMERVILLE FAIR 75 75 100 CALM 29.97R BEAUFORT MCAS MOSUNNY 77 73 87 SW6 29.97R BEAUFORT ARPT PTSUNNY 77 73 88 SW5 29.96R HILTON HEAD IS PTSUNNY 77 73 88 S6 29.98R WALTERBORO CLOUDY 77 N/A N/A SW7 29.96S ALLENDALE CLOUDY 72 72 100 VRB3 29.95R FOG ...SOUTHERN MIDLANDS AND PEE DEE... CITY SKY/WX TMP DP RH WIND PRES REMARKS GEORGETOWN PTSUNNY 79 73 83 SW7 29.98R KINGSTREE FAIR 77 72 83 S6 29.96R ORANGEBURG CLOUDY 73 71 93 SW6 29.95R BARNWELL NOT AVBL AIKEN NOT AVBL MANNING FAIR 75 72 88 SW6 29.95R COLUMBIA MOSUNNY 73 69 87 CALM 29.93R SUMTER MOSUNNY 74 72 92 S6 29.92R FLORENCE PTSUNNY 76 73 91 S6 29.95R MYRTLE BEACH PTSUNNY 81 70 69 S8 N/A N MYRTLE BEACH PTSUNNY 82 76 81 S14 29.96R $$ GAZ063-065-086>088-099>101-113>116-118-119-134>141-150-291400- ...SOUTHEAST GEORGIA... CITY SKY/WX TMP DP RH WIND PRES REMARKS SAVANNAH ARPT PTSUNNY 75 71 87 SW7 29.97R HUNTER AAF PTSUNNY 75 75 100 VRB5 29.95R FORT STEWART PTSUNNY 75 72 88 SW5 29.96R STATESBORO SUNNY 75 74 95 SW5 29.97R SYLVANIA NOT AVBL CLAXTON FAIR 74 74 100 S3 29.97R FOG ...CSRA...CENTRAL AND FAR SOUTHEAST GEORGIA... CITY SKY/WX TMP DP RH WIND PRES REMARKS THOMSON SUNNY 71 62 75 CALM 30.00R AUGUSTA-BUSH SUNNY 73 65 75 W6 29.94R AUGUSTA-DANIEL SUNNY 74 58 57 VRB5 29.95R SWAINSBORO FAIR 72 70 94 W5 29.98R VIDALIA SUNNY 73 73 100 SW5 29.98R EASTMAN FAIR 73 73 100 CALM 30.00R HAZLEHURST PTSUNNY 74 74 100 CALM 29.97R ALMA CLOUDY 73 73 100 S3 29.99R FOG WAYCROSS CLOUDY 76 76 100 SW5 30.00R FOG JESUP CLOUDY 73 73 100 SW3 29.99R FOG BAXLEY CLOUDY 73 73 100 S5 29.99R FOG BRUNSWICK CLOUDY 75 73 94 W8 30.00R SAINT SIMONS MOSUNNY 76 73 91 SW10 29.99R $$ SCZ027-028-034-036>038-045-046-048>050-GAZ119-141-291400- ...LAKE AND SUPPLEMENTAL COASTAL OBSERVATIONS... STATION/POSITION TIME TEMP WIND PRES WAVE SWELL AIR SEA DIR/SP/G HT/PER HT/PER/DIR (UTC) (F) (DEG/KT/KT) (MB) (FT/S) (FT/S/D) WINYAH BAY NOT AVBL LAKE MURRAY 1220 74 250/ 6/ 9 1012.9 ACE BASIN NERRS 1145 74 CALM 1014.0 FORT PULASKI 1242 76 81 230/ 5/ 8 1015.1R SAPELO ISLAND 1200 75 230/ 10 1015.0 $$ ANZ835-935-AMZ111-154-330-350-352-354-370-450-454-472-291400- ...C-MAN AND BUOY OBSERVATIONS... STATION/POSITION TIME TEMP WIND PRES WAVE SWELL AIR SEA DIR/SP/G HT/PER HT/PER/DIR (UTC) (F) (DEG/KT/KT) (MB) (FT/S) (FT/S/D) BUOY 41004 1250 75 82 130/ 21/ 27 1014.4R 3/11 2/100/11 BUOY 41008 1250 78 82 240/ 16/ 17 1014.3R 3/ 4 2/ 60/11 FOLLY BEACH CMAN 1200 79 220/ 10/ 14 1014.0R CAPERS NEARSHORE 1208 80 81 230/ 12/ 16 1013.8R FRIPP NEARSHORE 1208 78 81 240/ 12/ 16 1014.1R STATION/POSITION TIME TEMP WIND PRES WAVE SWELL AIR SEA DIR/SP/G HT/PER HT/PER/DIR (UTC) (F) (DEG/KT/KT) (MB) (FT/S) (FT/S/D) 5E ST. MARYS GA 1201 82 N/A 2/11 2/100/11 FRYING PAN BUOY 1250 78 82 170/ 14/ 17 1015.0R 3/11 2/110/11 BUOY 41025 1250 79 81 30/ 6/ 8 1016.2R 3/11 3/100/11 CAPE LOOKOUT NC 1200 79 130/ 3/ 3 1015.4R BUOY 41002 1250 80 83 190/ 8/ 8 1017.2R 4/ 5 3/170/ 5 BUOY 41010 NOT AVBL ST AUGUSTINE FL 1300 76 83 220/ 8/ 11 1017.1R $$

USA.gov is the U.S. government's official web portal to all federal, state and local government web resources and services.